Zurück zum Katalog

FENGYUN 1C DEB

AktivSSO
NORAD 29894·DEBRIS·🇨🇳 China

Gestartet May 10, 1999 von Taiyuan Satellite Launch Center

Loading…

Nächste Überflüge (nächste 24 Stunden)

TLE

AktuellSource: Space-Track

Epoche: Sep 14, 2026, 20:00 UTC

1 29894U 99025GQ  26257.83375191  .00000230  00000-0  23230-3 0  9994
2 29894  99.4564 317.9721 0168201  36.6252  14.1451 13.81270794988882

Verfolge FENGYUN 1C DEB in Echtzeit mit AllMySat

Download on the App Store